Location: Broletto
(44.6000°N, 10.5833°E)
Time: 01:39:59
(UTC+00:00)

COSMOS 2487 - Pass Details

Date: 18 April 2021
Orbit: 432 x 435 km, 74.7° (Epoch: 08 May)

Event Time Altitude Azimuth Distance (km) Brightness Sun altitude
Rises 18:56:26 0° 195° (SSW) 2,401 6.0 -9.1°
Reaches altitude 10° 18:58:29 10° 194° (SSW) 1,538 5.0 -9.5°
Maximum altitude 19:01:52 77° 109° (ESE) 453 2.2 -10.0°
Drops below altitude 10° 19:05:16 10° 23° (NNE) 1,553 5.2 -10.5°
Sets 19:07:21 0° 22° (NNE) 2,427 6.2 -10.9°
